Total_Precipitation_Accumulation
0.05 0.04 0.04 0.04 0.03 0.03 0.03 0.03 0.04 0.04 0.04 0.05 0.07 0.09 0.10 0.12 0.15 0.21 0.27 0.38 0.52 0.59 0.57 0.50 0.45 0.44 0.43 0.37 0.34 0.30 0.30 0.33 0.38 0.39 0.48 0.60 0.63 0.55 0.55 0.52 0.49 0.49 0.40
0.03 0.04 0.04 0.04 0.04 0.05 0.05 0.05 0.05 0.05 0.05 0.04 0.06 0.07 0.05 0.06 0.08 0.12 0.18 0.25 0.37 0.53 0.69 0.72 0.63 0.56 0.51 0.43 0.39 0.37 0.35 0.39 0.44 0.53 0.60 0.67 0.69 0.67 0.63 0.50 0.41 0.39 0.43
0.05 0.06 0.07 0.07 0.08 0.09 0.10 0.11 0.12 0.12 0.11 0.10 0.10 0.10 0.09 0.09 0.11 0.11 0.12 0.13 0.18 0.27 0.44 0.66 0.75 0.72 0.59 0.52 0.46 0.41 0.40 0.40 0.42 0.48 0.58 0.74 0.85 0.83 0.62 0.40 0.34 0.37 0.38
0.15 0.19 0.21 0.19 0.21 0.23 0.20 0.20 0.21 0.22 0.20 0.20 0.21 0.21 0.18 0.16 0.16 0.16 0.14 0.14 0.14 0.16 0.23 0.35 0.53 0.70 0.68 0.61 0.53 0.46 0.46 0.48 0.49 0.50 0.59 0.76 0.93 0.98 0.75 0.47 0.37 0.35 0.35
0.31 0.33 0.32 0.29 0.29 0.30 0.33 0.34 0.34 0.35 0.36 0.40 0.37 0.32 0.30 0.27 0.23 0.24 0.27 0.25 0.25 0.23 0.21 0.22 0.26 0.41 0.56 0.63 0.58 0.53 0.54 0.55 0.55 0.54 0.60 0.76 0.92 1.00 0.77 0.56 0.43 0.39 0.37
0.54 0.57 0.62 0.61 0.59 0.57 0.54 0.54 0.59 0.58 0.58 0.58 0.53 0.50 0.47 0.37 0.34 0.33 0.32 0.33 0.38 0.41 0.36 0.34 0.29 0.27 0.34 0.45 0.53 0.56 0.56 0.55 0.56 0.57 0.60 0.74 0.86 0.91 0.96 0.79 0.59 0.42 0.35
0.48 0.50 0.56 0.61 0.63 0.63 0.64 0.65 0.67 0.70 0.70 0.69 0.68 0.64 0.61 0.57 0.48 0.40 0.33 0.35 0.39 0.46 0.51 0.49 0.33 0.21 0.27 0.34 0.42 0.46 0.47 0.44 0.44 0.51 0.57 0.68 0.95 1.12 1.22 0.96 0.76 0.64 0.50
0.38 0.37 0.35 0.36 0.38 0.41 0.49 0.57 0.63 0.69 0.71 0.71 0.66 0.57 0.53 0.48 0.43 0.36 0.32 0.36 0.40 0.39 0.48 0.54 0.48 0.38 0.37 0.41 0.42 0.39 0.37 0.35 0.32 0.34 0.42 0.60 0.85 1.21 1.39 1.36 1.25 1.04 0.87
0.25 0.27 0.27 0.28 0.31 0.34 0.42 0.52 0.63 0.67 0.63 0.58 0.54 0.53 0.53 0.51 0.48 0.38 0.34 0.40 0.44 0.40 0.42 0.48 0.52 0.48 0.38 0.32 0.36 0.33 0.31 0.31 0.28 0.29 0.35 0.53 0.71 0.97 1.31 1.48 1.41 1.18 0.95
0.25 0.27 0.29 0.32 0.34 0.37 0.41 0.46 0.48 0.51 0.50 0.48 0.45 0.47 0.51 0.54 0.51 0.37 0.32 0.39 0.44 0.43 0.46 0.53 0.56 0.51 0.39 0.28 0.34 0.38 0.32 0.28 0.31 0.31 0.33 0.39 0.52 0.70 0.99 1.16 1.12 1.04 0.87
0.21 0.23 0.25 0.26 0.30 0.32 0.35 0.37 0.40 0.42 0.41 0.39 0.37 0.40 0.45 0.46 0.41 0.29 0.26 0.33 0.40 0.44 0.44 0.47 0.57 0.50 0.39 0.27 0.30 0.34 0.29 0.30 0.38 0.38 0.40 0.44 0.55 0.67 0.80 1.00 1.04 0.92 0.79
0.17 0.21 0.23 0.26 0.28 0.30 0.34 0.35 0.34 0.34 0.32 0.31 0.32 0.33 0.39 0.43 0.34 0.26 0.17 0.20 0.30 0.38 0.48 0.52 0.60 0.57 0.44 0.35 0.31 0.30 0.25 0.23 0.31 0.37 0.37 0.37 0.45 0.55 0.71 0.91 1.07 1.03 0.88
0.21 0.22 0.23 0.24 0.27 0.31 0.35 0.36 0.37 0.37 0.36 0.33 0.30 0.27 0.29 0.38 0.36 0.19 0.13 0.13 0.21 0.34 0.54 0.70 0.73 0.70 0.60 0.49 0.42 0.40 0.31 0.26 0.29 0.32 0.33 0.31 0.35 0.47 0.70 0.95 1.14 1.24 1.14
0.22 0.21 0.21 0.21 0.21 0.25 0.32 0.36 0.37 0.37 0.36 0.33 0.31 0.31 0.31 0.36 0.37 0.32 0.25 0.17 0.17 0.26 0.47 0.66 0.79 0.85 0.81 0.70 0.61 0.55 0.41 0.34 0.34 0.34 0.35 0.40 0.47 0.59 0.75 0.84 0.98 1.11 1.15
0.22 0.21 0.20 0.18 0.19 0.22 0.27 0.29 0.26 0.28 0.25 0.23 0.24 0.26 0.28 0.30 0.25 0.19 0.19 0.19 0.19 0.23 0.39 0.66 0.87 1.01 1.05 1.03 0.91 0.81 0.69 0.58 0.49 0.49 0.51 0.53 0.56 0.63 0.70 0.83 0.95 1.00 0.97
0.27 0.24 0.21 0.19 0.20 0.22 0.23 0.24 0.23 0.20 0.18 0.19 0.20 0.18 0.14 0.15 0.13 0.10 0.09 0.10 0.12 0.18 0.37 0.63 0.86 1.04 1.11 1.22 1.23 1.15 0.99 0.83 0.74 0.71 0.68 0.67 0.68 0.66 0.71 0.85 0.99 1.03 0.93
0.25 0.24 0.19 0.17 0.17 0.19 0.21 0.27 0.33 0.31 0.24 0.22 0.28 0.24 0.14 0.12 0.12 0.12 0.12 0.12 0.14 0.20 0.40 0.57 0.68 0.83 1.01 1.19 1.28 1.27 1.11 0.98 0.99 0.97 0.88 0.82 0.82 0.79 0.77 0.85 0.97 1.04 1.01
0.23 0.22 0.18 0.16 0.18 0.20 0.21 0.26 0.33 0.41 0.47 0.41 0.37 0.35 0.20 0.13 0.12 0.13 0.15 0.17 0.18 0.22 0.37 0.47 0.53 0.65 0.83 1.08 1.23 1.29 1.22 1.11 1.10 1.11 1.07 1.00 0.98 0.92 0.84 0.81 0.90 0.98 1.01
0.19 0.16 0.14 0.15 0.18 0.21 0.24 0.26 0.30 0.36 0.43 0.44 0.40 0.39 0.28 0.18 0.15 0.15 0.24 0.32 0.31 0.29 0.38 0.43 0.47 0.58 0.73 0.93 1.12 1.26 1.29 1.22 1.16 1.21 1.21 1.11 1.06 1.00 0.88 0.81 0.85 0.95 1.03
0.16 0.15 0.12 0.11 0.14 0.19 0.24 0.27 0.28 0.35 0.40 0.43 0.41 0.41 0.36 0.27 0.27 0.34 0.44 0.54 0.50 0.48 0.51 0.52 0.57 0.66 0.79 1.00 1.18 1.28 1.31 1.29 1.24 1.26 1.24 1.16 1.10 1.06 0.95 0.90 0.91 0.94 0.95
0.17 0.14 0.14 0.13 0.15 0.20 0.24 0.28 0.30 0.37 0.44 0.44 0.39 0.32 0.25 0.29 0.39 0.49 0.61 0.66 0.61 0.59 0.58 0.56 0.58 0.64 0.80 0.99 1.15 1.27 1.31 1.32 1.30 1.26 1.23 1.16 1.10 1.08 1.05 1.00 0.94 0.94 0.97
0.20 0.17 0.16 0.16 0.18 0.19 0.20 0.26 0.29 0.30 0.33 0.37 0.39 0.34 0.30 0.36 0.51 0.61 0.69 0.74 0.73 0.71 0.67 0.63 0.61 0.67 0.77 0.90 1.04 1.16 1.19 1.19 1.21 1.22 1.18 1.13 1.10 1.08 1.11 1.09 1.04 1.00 1.00
0.20 0.18 0.17 0.18 0.19 0.18 0.21 0.26 0.27 0.29 0.34 0.40 0.44 0.48 0.54 0.61 0.67 0.74 0.79 0.80 0.76 0.72 0.68 0.64 0.64 0.67 0.73 0.80 0.89 0.98 1.03 1.06 1.08 1.11 1.16 1.14 1.11 1.10 1.09 1.08 1.05 1.04 0.99
0.18 0.18 0.16 0.17 0.20 0.24 0.26 0.29 0.30 0.30 0.36 0.44 0.51 0.59 0.65 0.69 0.73 0.77 0.76 0.75 0.70 0.68 0.69 0.69 0.69 0.69 0.72 0.79 0.83 0.83 0.84 0.86 0.87 0.91 0.97 1.01 1.02 1.02 1.04 1.01 1.03 1.05 1.05
0.21 0.24 0.23 0.23 0.23 0.25 0.28 0.28 0.29 0.31 0.39 0.51 0.59 0.64 0.68 0.72 0.75 0.72 0.67 0.63 0.59 0.60 0.63 0.63 0.64 0.59 0.56 0.59 0.61 0.63 0.68 0.67 0.67 0.72 0.75 0.78 0.80 0.86 0.91 0.93 0.98 1.06 1.11
0.19 0.27 0.30 0.29 0.25 0.23 0.27 0.30 0.30 0.34 0.40 0.45 0.53 0.57 0.59 0.63 0.69 0.68 0.65 0.63 0.61 0.59 0.59 0.59 0.57 0.50 0.49 0.48 0.46 0.45 0.42 0.40 0.46 0.54 0.59 0.64 0.71 0.79 0.85 0.88 0.93 1.00 1.05